Location: Newark
(46.7000°N, 60.6000°W)
Time: 17:10:14
(UTC+00:00)

Vanguard 1 Rocket - Visible Passes

Search period start: 21 October 2020 00:00
Search period end: 31 October 2020 00:00
Orbit: 656 x 4221 km, 34.3° (Epoch: 20 October)

Date Brightness Start Highest point End Pass type
(mag) Time Alt. Az. Time Alt. Az. Time Alt. Az.
21 Oct 11.1 22:38:45 10° SW 22:43:59 14° SSW 22:50:48 10° S visible
22 Oct 10.7 21:26:44 10° WSW 21:32:14 18° SSW 21:40:06 10° SSE visible
24 Oct 11.0 21:31:39 10° SW 21:35:15 13° SSW 21:39:40 10° S visible
